Terminal Aerodrome Forecast
Issued by NWS Spokane, WA

Home | Current Version | Previous Version | Text Only | Print | Product List | Glossary On
Versions: 1 2 3 4 5 6 7 8 9 10 11 12 13 14 15 16 17 18 19 20 21 22 23 24 25 26 27 28 29 30 31 32 33
000
FTUS46 KOTX 302324
TAFEAT
TAF
KEAT 302324Z 0100/0124 30026G38KT P6SM BKN200
     FM010300 30014KT P6SM FEW200
     FM010800 30008KT P6SM SCT200
     FM011200 32008KT P6SM OVC250
     FM012000 11005KT P6SM VCSH BKN070 OVC100=

USA.gov is the U.S. government's official web portal to all federal, state and local government web resources and services.